15-01-2023, 00:00:05,    243,    0.1,    2.3,   0.00,   0.00,  997.6,   74.4, -999.0
15-01-2023, 00:00:14,    247,    1.9,    2.4,   0.00,   0.00,  997.7,   74.7, -999.0
15-01-2023, 00:00:25,    249,    0.9,    2.4,   0.00,   0.00,  997.7,   74.7, -999.0
15-01-2023, 00:00:35,    238,    1.7,    2.4,   0.00,   0.00,  997.7,   74.8, -999.0
15-01-2023, 00:00:44,    236,    4.9,    2.4,   0.00,   0.00,  997.7,   74.9, -999.0
15-01-2023, 00:00:54,    232,    4.1,    2.4,   0.00,   0.00,  997.7,   74.9, -999.0
15-01-2023, 00:01:05,    210,    2.9,    2.3,   0.00,   0.00,  997.7,   74.9, -999.0
15-01-2023, 00:01:14,    213,    2.4,    2.4,   0.00,   0.00,  997.7,   74.9, -999.0
15-01-2023, 00:01:24,    240,    1.3,    2.4,   0.00,   0.00,  997.8,   74.8, -999.0
15-01-2023, 00:01:34,    240,    2.9,    2.3,   0.00,   0.00,  997.7,   75.0, -999.0
15-01-2023, 00:01:45,    218,    1.5,    2.4,   0.00,   0.00,  997.7,   75.0, -999.0
15-01-2023, 00:01:54,    223,    0.3,    2.3,   0.00,   0.00,  997.6,   74.7, -999.0
15-01-2023, 00:02:04,    247,    1.6,    2.4,   0.00,   0.00,  997.7,   74.9, -999.0
15-01-2023, 00:02:14,    166,    1.0,    2.4,   0.00,   0.00,  997.7,   74.9, -999.0
15-01-2023, 00:02:24,    209,    0.3,    2.4,   0.00,   0.00,  997.7,   74.8, -999.0
15-01-2023, 00:02:34,    209,    3.1,    2.3,   0.00,   0.00,  997.7,   74.9, -999.0
15-01-2023, 00:02:44,    234,    4.2,    2.3,   0.00,   0.00,  997.7,   74.9, -999.0
15-01-2023, 00:02:55,    244,    3.2,    2.4,   0.00,   0.00,  997.7,   74.9, -999.0
15-01-2023, 00:03:04,    189,    2.0,    2.4,   0.00,   0.00,  997.7,   75.0, -999.0
15-01-2023, 00:03:14,    174,    0.6,    2.4,   0.00,   0.00,  997.7,   75.0, -999.0
15-01-2023, 00:03:24,    216,    1.8,    2.3,   0.00,   0.00,  997.7,   75.0, -999.0
15-01-2023, 00:03:34,    243,    1.1,    2.3,   0.00,   0.00,  997.7,   74.9, -999.0
15-01-2023, 00:03:44,    220,    5.2,    2.4,   0.00,   0.00,  997.7,   75.0, -999.0
15-01-2023, 00:03:54,    197,    4.6,    2.4,   0.00,   0.00,  997.7,   74.9, -999.0
15-01-2023, 00:04:04,    217,    2.2,    2.3,   0.00,   0.00,  997.7,   74.9, -999.0
15-01-2023, 00:04:14,    235,    3.7,    2.3,   0.00,   0.00,  997.7,   74.8, -999.0
15-01-2023, 00:04:24,    248,    3.7,    2.4,   0.00,   0.00,  997.7,   75.0, -999.0
15-01-2023, 00:04:34,    251,    5.5,    2.4,   0.00,   0.00,  997.7,   74.9, -999.0
15-01-2023, 00:04:44,    225,    5.5,    2.4,   0.00,   0.00,  997.7,   74.9, -999.0
15-01-2023, 00:04:54,    222,    4.6,    2.4,   0.00,   0.00,  997.7,   74.7, -999.0
15-01-2023, 00:05:04,    240,    3.2,    2.4,   0.00,   0.00,  997.7,   74.7, -999.0
15-01-2023, 00:05:14,    230,    1.5,    2.4,   0.00,   0.00,  997.7,   74.8, -999.0
15-01-2023, 00:05:24,    218,    1.1,    2.4,   0.00,   0.00,  997.6,   74.8, -999.0
15-01-2023, 00:05:34,    210,    1.5,    2.3,   0.00,   0.00,  997.7,   74.9, -999.0
15-01-2023, 00:05:44,    236,    2.2,    2.4,   0.00,   0.00,  997.7,   74.9, -999.0
15-01-2023, 00:05:54,    234,    1.1,    2.4,   0.00,   0.00,  997.7,   75.0, -999.0
15-01-2023, 00:06:04,    233,    0.0,    2.2,   0.00,   0.00,  997.6,   74.6, -999.0
15-01-2023, 00:06:14,    236,    1.0,    2.3,   0.00,   0.00,  997.7,   74.9, -999.0
15-01-2023, 00:06:24,    208,    0.7,    2.4,   0.00,   0.00,  997.7,   74.9, -999.0
15-01-2023, 00:06:34,    208,    0.1,    2.3,   0.00,   0.00,  997.6,   74.8, -999.0
15-01-2023, 00:06:44,    209,    0.1,    2.2,   0.00,   0.00,  997.6,   75.0, -999.0
15-01-2023, 00:06:54,    238,    0.4,    2.2,   0.00,   0.00,  997.6,   74.9, -999.0
15-01-2023, 00:07:04,    240,    0.6,    2.2,   0.00,   0.00,  997.6,   75.0, -999.0
15-01-2023, 00:07:14,    232,    1.6,    2.2,   0.00,   0.00,  997.6,   75.0, -999.0
15-01-2023, 00:07:24,    253,    2.6,    2.3,   0.00,   0.00,  997.7,   75.1, -999.0
15-01-2023, 00:07:34,    220,    3.2,    2.3,   0.00,   0.00,  997.7,   75.1, -999.0
15-01-2023, 00:07:44,    213,    2.1,    2.3,   0.00,   0.00,  997.7,   75.2, -999.0
15-01-2023, 00:07:54,    233,    5.9,    2.3,   0.00,   0.00,  997.7,   75.2, -999.0
15-01-2023, 00:08:04,    218,    3.2,    2.3,   0.00,   0.00,  997.7,   75.2, -999.0
15-01-2023, 00:08:14,    242,    3.7,    2.3,   0.00,   0.00,  997.7,   75.2, -999.0
15-01-2023, 00:08:24,    223,    3.7,    2.3,   0.00,   0.00,  997.7,   75.3, -999.0
15-01-2023, 00:08:33,    218,    3.2,    2.3,   0.00,   0.00,  997.7,   75.2, -999.0
15-01-2023, 00:08:44,    211,    0.8,    2.3,   0.00,   0.00,  997.7,   75.1, -999.0
15-01-2023, 00:08:54,    252,    1.2,    2.3,   0.00,   0.00,  997.7,   75.0, -999.0
15-01-2023, 00:09:04,    275,    1.5,    2.3,   0.00,   0.00,  997.7,   75.1, -999.0
15-01-2023, 00:09:13,    208,    1.0,    2.3,   0.00,   0.00,  997.6,   75.0, -999.0
15-01-2023, 00:09:24,    207,    0.4,    2.2,   0.00,   0.00,  997.6,   74.8, -999.0
15-01-2023, 00:09:34,    234,    0.2,    2.2,   0.00,   0.00,  997.6,   74.8, -999.0
15-01-2023, 00:09:43,    228,    1.3,    2.2,   0.00,   0.00,  997.7,   75.0, -999.0
15-01-2023, 00:09:54,    195,    2.4,    2.3,   0.00,   0.00,  997.7,   75.0, -999.0
15-01-2023, 00:10:04,    179,    1.1,    2.2,   0.00,   0.00,  997.7,   75.0, -999.0
15-01-2023, 00:10:13,    258,    0.6,    2.2,   0.00,   0.00,  997.6,   74.9, -999.0
15-01-2023, 00:10:23,    229,    1.1,    2.3,   0.00,   0.00,  997.7,   75.1, -999.0
15-01-2023, 00:10:34,    230,    1.0,    2.3,   0.00,   0.00,  997.7,   75.0, -999.0
15-01-2023, 00:10:44,    231,    0.1,    2.2,   0.00,   0.00,  997.6,   74.9, -999.0
15-01-2023, 00:10:53,    232,    0.0,    2.1,   0.00,   0.00,  997.5,   74.8, -999.0
15-01-2023, 00:11:03,    204,    0.3,    2.1,   0.00,   0.00,  997.5,   75.0, -999.0
15-01-2023, 00:11:14,    229,    1.7,    2.2,   0.00,   0.00,  997.7,   75.2, -999.0
15-01-2023, 00:11:23,    238,    2.2,    2.2,   0.00,   0.00,  997.7,   75.2, -999.0
15-01-2023, 00:11:33,    238,    3.9,    2.3,   0.00,   0.00,  997.7,   75.2, -999.0
15-01-2023, 00:11:43,    190,    2.7,    2.2,   0.00,   0.00,  997.7,   75.3, -999.0
15-01-2023, 00:11:54,    256,    0.4,    2.1,   0.00,   0.00,  997.6,   75.2, -999.0
15-01-2023, 00:12:03,    288,    1.4,    2.2,   0.00,   0.00,  997.7,   75.1, -999.0
15-01-2023, 00:12:13,    236,    0.9,    2.2,   0.00,   0.00,  997.6,   75.0, -999.0
15-01-2023, 00:12:23,    247,    2.3,    2.2,   0.00,   0.00,  997.7,   75.0, -999.0
15-01-2023, 00:12:33,    160,    2.3,    2.2,   0.00,   0.00,  997.7,   75.0, -999.0
15-01-2023, 00:12:43,    251,    3.7,    2.2,   0.00,   0.00,  997.6,   75.1, -999.0
15-01-2023, 00:12:53,    235,    1.5,    2.2,   0.00,   0.00,  997.7,   75.0, -999.0
15-01-2023, 00:13:03,    235,    2.6,    2.2,   0.00,   0.00,  997.7,   75.0, -999.0
15-01-2023, 00:13:13,    220,    3.3,    2.2,   0.00,   0.00,  997.7,   75.0, -999.0
15-01-2023, 00:13:23,    238,    1.2,    2.2,   0.00,   0.00,  997.6,   75.0, -999.0
15-01-2023, 00:13:33,    242,    1.9,    2.3,   0.00,   0.00,  997.7,   75.0, -999.0
15-01-2023, 00:13:43,    239,    0.9,    2.2,   0.00,   0.00,  997.6,   74.9, -999.0
15-01-2023, 00:13:53,    238,    0.0,    2.1,   0.00,   0.00,  997.5,   74.6, -999.0
15-01-2023, 00:14:03,    180,    0.4,    2.2,   0.00,   0.00,  997.6,   75.0, -999.0
15-01-2023, 00:14:13,    198,    0.1,    2.2,   0.00,   0.00,  997.5,   74.9, -999.0
15-01-2023, 00:14:23,    257,    1.3,    2.2,   0.00,   0.00,  997.6,   75.1, -999.0
15-01-2023, 00:14:33,    232,    0.5,    2.2,   0.00,   0.00,  997.5,   75.1, -999.0
15-01-2023, 00:14:43,    232,    0.0,    2.1,   0.00,   0.00,  997.5,   74.7, -999.0
15-01-2023, 00:14:53,    214,    0.6,    2.1,   0.00,   0.00,  997.6,   75.0, -999.0
15-01-2023, 00:15:03,    214,    0.1,    2.1,   0.00,   0.00,  997.5,   74.9, -999.0
15-01-2023, 00:15:13,    220,    0.4,    2.1,   0.00,   0.00,  997.5,   75.2, -999.0
15-01-2023, 00:15:23,    220,    0.1,    2.1,   0.00,   0.00,  997.5,   75.0, -999.0
15-01-2023, 00:15:33,    206,    0.5,    2.1,   0.00,   0.00,  997.6,   75.1, -999.0
15-01-2023, 00:15:43,    205,    0.1,    2.1,   0.00,   0.00,  997.5,   75.0, -999.0
15-01-2023, 00:15:53,    206,    0.0,    2.1,   0.00,   0.00,  997.5,   75.0, -999.0
15-01-2023, 00:16:03,    206,    0.0,    2.0,   0.00,   0.00,  997.4,   74.8, -999.0
15-01-2023, 00:16:13,    205,    0.0,    2.1,   0.00,   0.00,  997.5,   75.0, -999.0
15-01-2023, 00:16:23,    241,    2.0,    2.2,   0.00,   0.00,  997.6,   75.2, -999.0
15-01-2023, 00:16:33,    225,    2.3,    2.2,   0.00,   0.00,  997.6,   75.1, -999.0
15-01-2023, 00:16:43,    246,    5.3,    2.2,   0.00,   0.00,  997.6,   75.1, -999.0
15-01-2023, 00:16:53,    248,    3.5,    2.2,   0.00,   0.00,  997.6,   75.3, -999.0
15-01-2023, 00:17:03,    239,    2.7,    2.1,   0.00,   0.00,  997.5,   75.1, -999.0
15-01-2023, 00:17:13,    234,    1.5,    2.3,   0.00,   0.00,  997.6,   75.1, -999.0
15-01-2023, 00:17:23,    179,    0.9,    2.2,   0.00,   0.00,  997.6,   75.1, -999.0
15-01-2023, 00:17:33,    215,    3.1,    2.3,   0.00,   0.00,  997.5,   75.2, -999.0
15-01-2023, 00:17:43,    225,    1.5,    2.2,   0.00,   0.00,  997.5,   75.1, -999.0
15-01-2023, 00:17:53,    193,    3.9,    2.2,   0.00,   0.00,  997.5,   75.1, -999.0
15-01-2023, 00:18:03,    217,    5.2,    2.3,   0.00,   0.00,  997.5,   75.0, -999.0
15-01-2023, 00:18:13,    219,    4.5,    2.3,   0.00,   0.00,  997.5,   74.9, -999.0
15-01-2023, 00:18:23,    240,    4.4,    2.2,   0.00,   0.00,  997.5,   75.0, -999.0
15-01-2023, 00:18:33,    240,    2.5,    2.3,   0.00,   0.00,  997.5,   74.9, -999.0
15-01-2023, 00:18:43,    239,    0.9,    2.2,   0.00,   0.00,  997.5,   74.8, -999.0
15-01-2023, 00:18:53,    231,    0.9,    2.2,   0.00,   0.00,  997.5,   74.8, -999.0
15-01-2023, 00:19:03,    253,    2.8,    2.2,   0.00,   0.00,  997.6,   74.9, -999.0
15-01-2023, 00:19:13,    206,    1.3,    2.1,   0.00,   0.00,  997.5,   74.9, -999.0
15-01-2023, 00:19:22,    207,    0.0,    2.1,   0.00,   0.00,  997.4,   74.7, -999.0
15-01-2023, 00:19:33,    228,    2.6,    2.2,   0.00,   0.00,  997.5,   74.9, -999.0
15-01-2023, 00:19:43,    261,    0.8,    2.3,   0.00,   0.00,  997.5,   74.9, -999.0
15-01-2023, 00:19:52,    260,    1.2,    2.2,   0.00,   0.00,  997.6,   74.8, -999.0
15-01-2023, 00:20:02,    259,    0.1,    2.1,   0.00,   0.00,  997.5,   74.7, -999.0
15-01-2023, 00:20:13,    271,    1.2,    2.2,   0.00,   0.00,  997.5,   74.9, -999.0
15-01-2023, 00:20:23,    166,    2.1,    2.2,   0.00,   0.00,  997.5,   75.0, -999.0
15-01-2023, 00:20:32,    191,    1.2,    2.2,   0.00,   0.00,  997.5,   75.0, -999.0
15-01-2023, 00:20:42,    190,    0.0,    2.2,   0.00,   0.00,  997.4,   74.6, -999.0
15-01-2023, 00:20:53,    192,    0.0,    2.1,   0.00,   0.00,  997.4,   74.7, -999.0
15-01-2023, 00:21:02,    223,    1.9,    2.1,   0.00,   0.00,  997.5,   74.8, -999.0
15-01-2023, 00:21:12,    192,    1.6,    2.1,   0.00,   0.00,  997.5,   75.0, -999.0
15-01-2023, 00:21:22,    264,    0.7,    2.1,   0.00,   0.00,  997.4,   74.9, -999.0
15-01-2023, 00:21:33,    262,    0.3,    2.1,   0.00,   0.00,  997.5,   75.0, -999.0
15-01-2023, 00:21:42,    262,    0.2,    2.1,   0.00,   0.00,  997.4,   75.0, -999.0
15-01-2023, 00:21:52,    262,    0.0,    2.1,   0.00,   0.00,  997.4,   74.9, -999.0
15-01-2023, 00:22:03,    270,    0.0,    2.1,   0.00,   0.00,  997.3,   74.7, -999.0
15-01-2023, 00:22:12,    192,    0.7,    2.1,   0.00,   0.00,  997.5,   75.1, -999.0
15-01-2023, 00:22:22,    236,    3.0,    2.0,   0.00,   0.00,  997.5,   75.1, -999.0
15-01-2023, 00:22:32,    245,    4.4,    2.1,   0.00,   0.00,  997.4,   75.1, -999.0
15-01-2023, 00:22:43,    208,    3.1,    2.2,   0.00,   0.00,  997.5,   75.2, -999.0
15-01-2023, 00:22:52,    260,    3.1,    2.2,   0.00,   0.00,  997.5,   75.3, -999.0
15-01-2023, 00:23:02,    201,    3.3,    2.2,   0.00,   0.00,  997.4,   75.1, -999.0
15-01-2023, 00:23:12,    261,    2.1,    2.2,   0.00,   0.00,  997.4,   75.1, -999.0
15-01-2023, 00:23:22,    183,    3.0,    2.2,   0.00,   0.00,  997.5,   74.9, -999.0
15-01-2023, 00:23:32,    227,    4.4,    2.2,   0.00,   0.00,  997.5,   75.0, -999.0
15-01-2023, 00:23:42,    233,    4.1,    2.2,   0.00,   0.00,  997.5,   75.0, -999.0
15-01-2023, 00:23:52,    244,    2.5,    2.2,   0.00,   0.00,  997.5,   74.9, -999.0
15-01-2023, 00:24:02,    244,    0.5,    2.2,   0.00,   0.00,  997.4,   74.8, -999.0
15-01-2023, 00:24:12,    244,    0.0,    2.2,   0.00,   0.00,  997.3,   74.5, -999.0
15-01-2023, 00:24:22,    243,    0.0,    2.1,   0.00,   0.00,  997.3,   74.6, -999.0
15-01-2023, 00:24:32,    244,    0.0,    2.1,   0.00,   0.00,  997.3,   74.6, -999.0
15-01-2023, 00:24:42,    244,    0.0,    2.1,   0.00,   0.00,  997.3,   74.5, -999.0
15-01-2023, 00:24:52,    202,    0.5,    2.1,   0.00,   0.00,  997.4,   74.6, -999.0
15-01-2023, 00:25:02,    249,    3.3,    2.2,   0.00,   0.00,  997.4,   74.9, -999.0
15-01-2023, 00:25:12,    205,    0.3,    2.1,   0.00,   0.00,  997.4,   74.9, -999.0
15-01-2023, 00:25:22,    250,    1.6,    2.2,   0.00,   0.00,  997.5,   75.0, -999.0
15-01-2023, 00:25:32,    228,    3.0,    2.2,   0.00,   0.00,  997.5,   74.9, -999.0
15-01-2023, 00:25:42,    258,    0.6,    2.2,   0.00,   0.00,  997.4,   74.8, -999.0
15-01-2023, 00:25:52,    227,    1.1,    2.2,   0.00,   0.00,  997.4,   74.7, -999.0
15-01-2023, 00:26:02,    233,    4.9,    2.2,   0.00,   0.00,  997.5,   74.7, -999.0
15-01-2023, 00:26:12,    228,    2.6,    2.1,   0.00,   0.00,  997.4,   74.7, -999.0
15-01-2023, 00:26:22,    250,    1.1,    2.2,   0.00,   0.00,  997.4,   74.6, -999.0
15-01-2023, 00:26:32,    224,    3.0,    2.2,   0.00,   0.00,  997.5,   74.8, -999.0
15-01-2023, 00:26:42,    226,    0.9,    2.2,   0.00,   0.00,  997.4,   74.8, -999.0
15-01-2023, 00:26:52,    223,    0.8,    2.2,   0.00,   0.00,  997.4,   74.7, -999.0
15-01-2023, 00:27:02,    188,    3.2,    2.1,   0.00,   0.00,  997.3,   74.6, -999.0
15-01-2023, 00:27:12,    217,    4.8,    2.2,   0.00,   0.00,  997.3,   74.6, -999.0
15-01-2023, 00:27:22,    230,    1.4,    2.2,   0.00,   0.00,  997.4,   74.5, -999.0
15-01-2023, 00:27:32,    244,    0.8,    2.2,   0.00,   0.00,  997.4,   74.3, -999.0
15-01-2023, 00:27:42,    260,    1.1,    2.2,   0.00,   0.00,  997.4,   74.4, -999.0
15-01-2023, 00:27:52,    266,    1.7,    2.2,   0.00,   0.00,  997.3,   74.4, -999.0
15-01-2023, 00:28:02,    200,    1.3,    2.2,   0.00,   0.00,  997.3,   74.4, -999.0
15-01-2023, 00:28:12,    239,    1.2,    2.2,   0.00,   0.00,  997.3,   74.4, -999.0
15-01-2023, 00:28:21,    239,    0.4,    2.1,   0.00,   0.00,  997.2,   74.2, -999.0
15-01-2023, 00:28:32,    219,    0.6,    2.1,   0.00,   0.00,  997.3,   74.4, -999.0
15-01-2023, 00:28:42,    209,    2.3,    2.2,   0.00,   0.00,  997.3,   74.5, -999.0
15-01-2023, 00:28:52,    227,    1.6,    2.2,   0.00,   0.00,  997.3,   74.4, -999.0
15-01-2023, 00:29:02,    215,    3.5,    2.2,   0.00,   0.00,  997.3,   74.4, -999.0
15-01-2023, 00:29:12,    233,    2.0,    2.2,   0.00,   0.00,  997.3,   74.4, -999.0
15-01-2023, 00:29:22,    230,    1.7,    2.2,   0.00,   0.00,  997.3,   74.4, -999.0
15-01-2023, 00:29:31,    206,    2.7,    2.2,   0.00,   0.00,  997.3,   74.5, -999.0
15-01-2023, 00:29:42,    217,    3.5,    2.2,   0.00,   0.00,  997.3,   74.5, -999.0
15-01-2023, 00:29:52,    210,    5.5,    2.2,   0.00,   0.00,  997.3,   74.4, -999.0
15-01-2023, 00:30:02,    221,    3.7,    2.2,   0.00,   0.00,  997.3,   74.4, -999.0
15-01-2023, 00:30:11,    212,    3.1,    2.2,   0.00,   0.00,  997.3,   74.3, -999.0
15-01-2023, 00:30:22,    243,    3.4,    2.1,   0.00,   0.00,  997.3,   74.3, -999.0
15-01-2023, 00:30:32,    187,    1.9,    2.2,   0.00,   0.00,  997.3,   74.3, -999.0
15-01-2023, 00:30:41,    246,    2.4,    2.2,   0.00,   0.00,  997.4,   74.1, -999.0
15-01-2023, 00:30:51,    235,    3.9,    2.2,   0.00,   0.00,  997.3,   74.4, -999.0
15-01-2023, 00:31:02,    260,    1.3,    2.2,   0.00,   0.00,  997.3,   74.3, -999.0
15-01-2023, 00:31:11,    260,    0.2,    2.2,   0.00,   0.00,  997.3,   74.2, -999.0
15-01-2023, 00:31:21,    226,    0.0,    2.1,   0.00,   0.00,  997.3,   74.0, -999.0
15-01-2023, 00:31:31,    263,    1.8,    2.1,   0.00,   0.00,  997.3,   74.5, -999.0
15-01-2023, 00:31:42,    238,    5.2,    2.2,   0.00,   0.00,  997.3,   74.5, -999.0
15-01-2023, 00:31:51,    235,    4.1,    2.2,   0.00,   0.00,  997.3,   74.5, -999.0
15-01-2023, 00:32:01,    228,    2.3,    2.2,   0.00,   0.00,  997.3,   74.5, -999.0
15-01-2023, 00:32:12,    224,    0.7,    2.1,   0.00,   0.00,  997.3,   74.5, -999.0
15-01-2023, 00:32:21,    226,    0.5,    2.2,   0.00,   0.00,  997.3,   74.5, -999.0
15-01-2023, 00:32:31,    250,    1.0,    2.1,   0.00,   0.00,  997.3,   74.5, -999.0
15-01-2023, 00:32:41,    244,    2.3,    2.1,   0.00,   0.00,  997.4,   74.6, -999.0
15-01-2023, 00:32:51,    233,    0.3,    2.1,   0.00,   0.00,  997.4,   74.5, -999.0
15-01-2023, 00:33:01,    233,    0.2,    2.0,   0.00,   0.00,  997.4,   74.5, -999.0
15-01-2023, 00:33:11,    232,    0.3,    2.1,   0.00,   0.00,  997.3,   74.7, -999.0
15-01-2023, 00:33:21,    205,    0.9,    2.1,   0.00,   0.00,  997.4,   74.8, -999.0
15-01-2023, 00:33:31,    263,    1.1,    2.1,   0.00,   0.00,  997.4,   74.9, -999.0
15-01-2023, 00:33:41,    123,    0.4,    2.1,   0.00,   0.00,  997.4,   74.9, -999.0
15-01-2023, 00:33:51,    244,    2.3,    2.1,   0.00,   0.00,  997.5,   75.1, -999.0
15-01-2023, 00:34:01,    209,    0.7,    2.1,   0.00,   0.00,  997.4,   75.0, -999.0
15-01-2023, 00:34:11,    209,    0.0,    2.0,   0.00,   0.00,  997.3,   74.7, -999.0
15-01-2023, 00:34:21,    172,    0.7,    2.1,   0.00,   0.00,  997.4,   74.9, -999.0
15-01-2023, 00:34:31,    217,    0.1,    2.0,   0.00,   0.00,  997.3,   74.8, -999.0
15-01-2023, 00:34:41,    237,    1.1,    2.1,   0.00,   0.00,  997.5,   75.2, -999.0
15-01-2023, 00:34:51,    225,    1.8,    2.1,   0.00,   0.00,  997.5,   75.1, -999.0
15-01-2023, 00:35:01,    241,    2.2,    2.1,   0.00,   0.00,  997.5,   75.2, -999.0
15-01-2023, 00:35:11,    211,    3.8,    2.1,   0.00,   0.00,  997.5,   75.3, -999.0
15-01-2023, 00:35:21,    211,    3.1,    2.1,   0.00,   0.00,  997.5,   75.3, -999.0
15-01-2023, 00:35:31,    254,    2.8,    2.1,   0.00,   0.00,  997.5,   75.2, -999.0
15-01-2023, 00:35:41,    232,    3.3,    2.1,   0.00,   0.00,  997.5,   75.2, -999.0
15-01-2023, 00:35:51,    232,    4.0,    2.1,   0.00,   0.00,  997.5,   75.2, -999.0
15-01-2023, 00:36:01,    261,    3.2,    2.1,   0.00,   0.00,  997.5,   75.2, -999.0
15-01-2023, 00:36:11,    221,    1.2,    2.1,   0.00,   0.00,  997.5,   75.1, -999.0
15-01-2023, 00:36:21,    255,    1.6,    1.9,   0.00,   0.00,  997.4,   75.0, -999.0
15-01-2023, 00:36:31,    237,    1.8,    2.1,   0.00,   0.00,  997.5,   75.1, -999.0
15-01-2023, 00:36:41,    238,    2.7,    2.1,   0.00,   0.00,  997.4,   75.1, -999.0
15-01-2023, 00:36:51,    221,    2.9,    2.1,   0.00,   0.00,  997.4,   75.2, -999.0
15-01-2023, 00:37:01,    253,    3.8,    2.1,   0.00,   0.00,  997.5,   75.1, -999.0
15-01-2023, 00:37:11,    222,    2.3,    2.1,   0.00,   0.00,  997.4,   75.2, -999.0
15-01-2023, 00:37:21,    233,    2.0,    2.1,   0.00,   0.00,  997.4,   75.4, -999.0
15-01-2023, 00:37:31,    198,    1.7,    2.1,   0.00,   0.00,  997.5,   75.3, -999.0
15-01-2023, 00:37:41,    235,    3.3,    2.1,   0.00,   0.00,  997.5,   75.2, -999.0
15-01-2023, 00:37:51,    195,    2.6,    2.1,   0.00,   0.00,  997.5,   75.2, -999.0
15-01-2023, 00:38:01,    234,    1.7,    2.1,   0.00,   0.00,  997.4,   75.1, -999.0
15-01-2023, 00:38:11,    239,    2.3,    2.1,   0.00,   0.00,  997.4,   75.2, -999.0
15-01-2023, 00:38:21,    238,    0.3,    2.0,   0.00,   0.00,  997.4,   75.0, -999.0
15-01-2023, 00:38:30,    237,    0.0,    2.0,   0.00,   0.00,  997.2,   74.7, -999.0
15-01-2023, 00:38:41,    219,    1.6,    2.1,   0.00,   0.00,  997.4,   75.1, -999.0
15-01-2023, 00:38:51,    251,    3.5,    2.1,   0.00,   0.00,  997.4,   75.2, -999.0
15-01-2023, 00:39:01,    230,    2.8,    2.1,   0.00,   0.00,  997.4,   75.2, -999.0
15-01-2023, 00:39:10,    232,    2.3,    2.1,   0.00,   0.00,  997.4,   75.2, -999.0
15-01-2023, 00:39:21,    259,    0.3,    2.1,   0.00,   0.00,  997.4,   75.2, -999.0
15-01-2023, 00:39:31,    256,    0.5,    2.1,   0.00,   0.00,  997.4,   75.3, -999.0
15-01-2023, 00:39:40,    255,    0.2,    2.0,   0.00,   0.00,  997.4,   75.3, -999.0
15-01-2023, 00:39:50,    173,    1.5,    2.1,   0.00,   0.00,  997.4,   75.4, -999.0
15-01-2023, 00:40:01,    200,    1.8,    2.1,   0.00,   0.00,  997.3,   75.5, -999.0
15-01-2023, 00:40:11,    224,    0.6,    2.0,   0.00,   0.00,  997.4,   75.4, -999.0
15-01-2023, 00:40:20,    224,    0.2,    2.0,   0.00,   0.00,  997.3,   75.3, -999.0
15-01-2023, 00:40:31,    210,    0.3,    1.9,   0.00,   0.00,  997.3,   75.1, -999.0
15-01-2023, 00:40:41,    200,    0.4,    1.9,   0.00,   0.00,  997.3,   75.3, -999.0
15-01-2023, 00:40:50,    254,    2.8,    2.0,   0.00,   0.00,  997.3,   75.5, -999.0
15-01-2023, 00:41:00,    256,    1.5,    2.0,   0.00,   0.00,  997.4,   75.4, -999.0
15-01-2023, 00:41:11,    220,    1.1,    2.0,   0.00,   0.00,  997.4,   75.3, -999.0
15-01-2023, 00:41:21,    242,    3.7,    2.0,   0.00,   0.00,  997.4,   75.4, -999.0
15-01-2023, 00:41:30,    239,    3.2,    2.1,   0.00,   0.00,  997.4,   75.5, -999.0
15-01-2023, 00:41:40,    239,    3.9,    2.1,   0.00,   0.00,  997.4,   75.4, -999.0
15-01-2023, 00:41:51,    248,    2.9,    2.1,   0.00,   0.00,  997.3,   75.3, -999.0
15-01-2023, 00:42:00,    217,    3.2,    2.1,   0.00,   0.00,  997.4,   75.2, -999.0
15-01-2023, 00:42:10,    217,    2.4,    2.1,   0.00,   0.00,  997.4,   75.2, -999.0
15-01-2023, 00:42:20,    239,    1.5,    2.0,   0.00,   0.00,  997.4,   75.2, -999.0
15-01-2023, 00:42:30,    215,    2.3,    2.1,   0.00,   0.00,  997.5,   75.2, -999.0
15-01-2023, 00:42:40,    206,    3.6,    2.1,   0.00,   0.00,  997.4,   75.1, -999.0
15-01-2023, 00:42:50,    224,    2.6,    2.1,   0.00,   0.00,  997.4,   75.0, -999.0
15-01-2023, 00:43:00,    225,    3.4,    2.1,   0.00,   0.00,  997.4,   74.9, -999.0
15-01-2023, 00:43:10,    201,    2.5,    2.1,   0.00,   0.00,  997.4,   74.8, -999.0
15-01-2023, 00:43:20,    250,    3.4,    2.1,   0.00,   0.00,  997.4,   74.8, -999.0
15-01-2023, 00:43:30,    249,    1.4,    2.1,   0.00,   0.00,  997.4,   74.9, -999.0
15-01-2023, 00:43:40,    242,    1.8,    2.1,   0.00,   0.00,  997.4,   74.9, -999.0
15-01-2023, 00:43:50,    252,    4.3,    2.1,   0.00,   0.00,  997.5,   74.9, -999.0
15-01-2023, 00:44:00,    243,    3.1,    2.1,   0.00,   0.00,  997.5,   74.7, -999.0
15-01-2023, 00:44:10,    213,    2.8,    2.1,   0.00,   0.00,  997.4,   74.8, -999.0
15-01-2023, 00:44:20,    220,    1.6,    2.1,   0.00,   0.00,  997.5,   74.9, -999.0
15-01-2023, 00:44:30,    224,    3.2,    2.1,   0.00,   0.00,  997.5,   74.9, -999.0
15-01-2023, 00:44:40,    237,    2.5,    2.1,   0.00,   0.00,  997.5,   74.8, -999.0
15-01-2023, 00:44:50,    243,    3.5,    2.2,   0.00,   0.00,  997.4,   74.6, -999.0
15-01-2023, 00:45:00,    231,    6.0,    2.1,   0.00,   0.00,  997.5,   74.5, -999.0
15-01-2023, 00:45:10,    228,    5.1,    2.1,   0.00,   0.00,  997.5,   74.4, -999.0
15-01-2023, 00:45:20,    236,    4.1,    2.1,   0.00,   0.00,  997.5,   74.2, -999.0
15-01-2023, 00:45:30,    258,    3.6,    2.1,   0.00,   0.00,  997.4,   74.1, -999.0
15-01-2023, 00:45:40,    200,    1.4,    2.1,   0.00,   0.00,  997.5,   74.1, -999.0
15-01-2023, 00:45:50,    246,    1.0,    2.1,   0.00,   0.00,  997.4,   74.1, -999.0
15-01-2023, 00:46:00,    235,    0.5,    2.0,   0.00,   0.00,  997.4,   73.9, -999.0
15-01-2023, 00:46:10,    265,    1.5,    2.1,   0.00,   0.00,  997.5,   74.0, -999.0
15-01-2023, 00:46:20,    254,    0.2,    2.1,   0.00,   0.00,  997.4,   73.8, -999.0
15-01-2023, 00:46:30,    178,    1.0,    2.1,   0.00,   0.00,  997.5,   74.0, -999.0
15-01-2023, 00:46:40,    222,    1.6,    2.1,   0.00,   0.00,  997.5,   74.2, -999.0
15-01-2023, 00:46:50,    230,    4.2,    2.1,   0.00,   0.00,  997.5,   74.1, -999.0